Content
SEND FEEDBACK

Daily
Averages
Monthly
Summary
United States of America

BERKELEY, MISSOURI


Home > North America > United States > Missouri
Elevation: 564 feet     Latitude: 38 45N     Longitude: 090 22W

WEATHER
 
SELECT A DAY
Number of Records: 203,268;   Date Range: 1/1/95 - 7/7/14
 
SHARE

PRINT THIS DATA

[ ← Previous Day ]
WEATHER ALMANAC - MAY 4, 2013
[ Next Day → ]
[ °C ]   °F
Weather ElementAverageHighLow
Temperature45.5 °F50 °F (4:51 pm)41 °F (2:51 am)
Dewpoint39.7 °F43 °F (9:51 pm)37 °F (9:51 am)
Humidity80.4 %93 % (2:51 am)68 % (5:51 pm)
Barometer29.94 in30.03 in (9:51 pm)29.88 in (2:51 am)
Wind Speed4.1 mph9.2 mph (6:51 pm)
Weather ElementAverage
Visibility9.2 mi
Wind DirectionESE (96.7 °)

Weather ElementTotal
Precipitation---
Heating Degree Days19.5 (Base 65)
Averaged from 33 records on May 4, 2013
WEATHER CONDITIONS BREAKOUT
WIND DIRECTION BREAKOUT
WEATHER BY HOUR - MAY 4, 2013
[ °C ]   °F
Local TimeTemperatureDewpointHumidityBarometerVisibilityWind DirectionWind SpeedGust SpeedPrecipitationEventsConditions
2:51 AM41.0 °F39.0 °F93 %29.88 in10.0 miSSW (200°)4.6 mph0.00 inRainLight Rain
3:51 AM41.0 °F37.9 °F89 %29.88 in10.0 miSSW (210°)5.8 mph0.00 inOvercast
4:51 AM41.0 °F37.9 °F89 %29.88 in10.0 miSSW (210°)5.8 mphOvercast
5:51 AM41.0 °F37.9 °F89 %29.89 in10.0 miCalmOvercast
5:58 AM41.0 °F37.4 °F87 %29.88 in10.0 miCalmOvercast
6:42 AM42.8 °F37.4 °F81 %29.90 in10.0 miSSW (210°)3.5 mphOvercast
6:51 AM42.1 °F37.9 °F85 %29.92 in10.0 miCalmOvercast
6:59 AM42.8 °F37.4 °F81 %29.90 in10.0 miCalmOvercast
7:23 AM42.8 °F37.4 °F81 %29.91 in10.0 miCalmOvercast
7:51 AM42.1 °F37.9 °F85 %29.93 in10.0 miCalmMostly Cloudy
8:17 AM42.8 °F37.4 °F81 %29.92 in10.0 miCalmMostly Cloudy
8:51 AM44.1 °F37.9 °F79 %29.94 in10.0 miSSE (160°)3.5 mphMostly Cloudy
9:20 AM44.6 °F37.4 °F76 %29.92 in10.0 miSE (140°)3.5 mphOvercast
9:51 AM45.0 °F37.0 °F74 %29.94 in10.0 miSouth (170°)3.5 mphOvercast
10:51 AM46.0 °F37.0 °F71 %29.95 in10.0 miSE (140°)4.6 mphOvercast
11:51 AM46.0 °F37.9 °F73 %29.95 in10.0 miEast (100°)3.5 mphOvercast
12:24 PM46.4 °F39.2 °F76 %29.94 in4.0 miESE (120°)4.6 mph0.00 inLight Drizzle
12:51 PM46.0 °F41.0 °F83 %29.95 in4.0 miEast (100°)4.6 mph0.00 inLight Drizzle
12:57 PM46.4 °F41.0 °F81 %29.94 in5.0 miSE (130°)5.8 mph0.00 inLight Drizzle
1:51 PM46.9 °F42.1 °F83 %29.96 in8.0 miENE (70°)6.9 mph0.00 inLight Drizzle
2:17 PM46.4 °F41.0 °F81 %29.95 in5.0 miESE (110°)6.9 mph0.00 inLight Drizzle
2:30 PM46.4 °F42.8 °F87 %29.94 in7.0 miEast (90°)8.1 mph0.00 inLight Drizzle
2:51 PM48.0 °F41.0 °F77 %29.96 in9.0 miEast (100°)6.9 mph0.00 inOvercast
3:51 PM48.9 °F41.0 °F74 %29.96 in10.0 miEast (100°)4.6 mphOvercast
4:51 PM50.0 °F42.1 °F74 %29.97 in10.0 miEast (80°)6.9 mphOvercast
4:58 PM50.0 °F41.0 °F71 %29.95 in10.0 miENE (70°)6.9 mphOvercast
5:51 PM50.0 °F39.9 °F68 %29.96 in10.0 miEast (90°)3.5 mphOvercast
6:51 PM50.0 °F42.1 °F74 %29.98 in10.0 miENE (70°)9.2 mphOvercast
7:51 PM48.9 °F42.1 °F77 %29.99 in10.0 miNE (50°)5.8 mphOvercast
8:51 PM48.0 °F42.1 °F80 %30.02 in10.0 miENE (70°)5.8 mphOvercast
9:51 PM48.0 °F43.0 °F83 %30.03 in10.0 miNE (50°)5.8 mphOvercast
10:51 PM48.0 °F43.0 °F83 %30.02 in10.0 miCalmMostly Cloudy
11:51 PM46.9 °F43.0 °F86 %30.01 in10.0 miNorth (350°)3.5 mphMostly Cloudy
Hourly data recorded from KSTL, located miles away from Berkeley, Missouri







STORIES FROM OUR PARTNERS